Voltar ao catálogo

KUIPER-00103

AtivoComunicaçõesLEO
NORAD 65141·PAYLOAD·🇺🇸 United States

Lançado Aug 11, 2025 de Cape Canaveral Space Force Station

Loading…

Próximas Passagens (próximas 24 horas)

TLE

AtualizadoSource: CelesTrak SupGP

Época: Sep 14, 2026, 19:36 UTC

1 65141C 25171K   26257.81695602  .00006069  00000+0  79445-3 0  2571
2 65141  51.8990  54.2259 0000598 110.0929  80.4558 14.79926433    11

Acompanhe KUIPER-00103 em tempo real com AllMySat

Download on the App Store